, AK

(GMT )
Deadhorse

Weather History for PASC - October, 2013

Change the Weather History Date:

Sunday, October 13, 2013

  Actual Average Record
Temperature  
Mean Temperature 22 °F -  
Max Temperature 30 °F 19 °F 32 °F (1998)
Min Temperature 14 °F 8 °F -22 °F (1988)
Degree Days  
Heating Degree Days 43    
Moisture  
Dew Point 23 °F    
Average Humidity 91    
Maximum Humidity 96    
Minimum Humidity 85    
Precipitation  
Precipitation 0.00 in - - ()
Sea Level Pressure  
Sea Level Pressure 29.63 in    
Wind  
Wind Speed 12 mph (ENE)    
Max Wind Speed 25 mph    
Max Gust Speed 33 mph    
Visibility 8 miles    
Events Snow    
Averages and records for this station are not official NWS values.
T = Trace of Precipitation, MM = Missing Value Source: NWS Daily Summary

Daily Weather History Graph

Daily Weather History Graph

Search for Another Location

Airport or City:

Trip Planner

Search our weather history database for the weather conditions in past years. The results will help you decide how hot, cold, wet, or windy it might be!

Date:

Astronomy

Oct. 13, 2013 Rise Set
Actual Time 9:01 AM AKDT 6:16 PM AKDT
Civil Twilight 7:58 AM AKDT 7:19 PM AKDT
Nautical Twilight 6:46 AM AKDT 8:30 PM AKDT
Astronomical Twilight 5:31 AM AKDT 9:45 PM AKDT
Moon 5:44 PM AKDT (10/13) 12:21 AM AKDT (10/13)
Length of Visible Light 11h 21m
Length of Day
9h 15m
Waxing Gibbous, 71% of the Moon is Illuminated
Oct 13
Waxing Gibbous
Oct 18
Full
Oct 26
Last Quarter
Nov 3
New
Nov 9
First Quarter

Hourly Weather History & Observations

Time (AKDT) Temp. Windchill Dew Point Humidity Pressure Visibility Wind Dir Wind Speed Gust Speed Precip Events Conditions
12:53 AM 14.0 °F 5.1 °F 12.0 °F 92% 29.81 in 10.0 mi ENE 5.8 mph - N/A   Clear
1:53 AM 19.0 °F 12.3 °F 16.0 °F 88% 29.81 in 10.0 mi East 4.6 mph - N/A   Clear
2:53 AM 15.1 °F 4.2 °F 12.0 °F 88% 29.81 in 10.0 mi ENE 8.1 mph - N/A   Clear
3:53 AM 15.1 °F 2.5 °F 12.0 °F 88% 29.80 in 10.0 mi ENE 10.4 mph - N/A   Clear
4:53 AM 14.0 °F 2.0 °F 10.9 °F 88% 29.79 in 10.0 mi East 9.2 mph - N/A   Partly Cloudy
5:53 AM 17.1 °F 4.3 °F 15.1 °F 92% 29.78 in 10.0 mi East 11.5 mph - N/A   Clear
6:53 AM 19.9 °F 6.7 °F 17.1 °F 89% 29.78 in 10.0 mi East 13.8 mph - N/A   Clear
7:53 AM 19.0 °F 7.5 °F 16.0 °F 88% 29.77 in 10.0 mi East 10.4 mph - N/A   Mostly Cloudy
8:53 AM 21.0 °F 8.6 °F 19.0 °F 92% 29.75 in 10.0 mi East 12.7 mph - N/A   Overcast
9:53 AM 27.0 °F 13.9 °F 24.1 °F 89% 29.73 in 10.0 mi East 18.4 mph - N/A   Overcast
10:53 AM 28.0 °F 15.3 °F 25.0 °F 88% 29.72 in 10.0 mi East 18.4 mph - N/A   Overcast
11:53 AM 28.0 °F 15.7 °F 25.0 °F 88% 29.70 in 10.0 mi East 17.3 mph - N/A   Overcast
12:53 PM 30.0 °F 17.9 °F 26.1 °F 85% 29.67 in 10.0 mi East 18.4 mph - N/A   Overcast
1:53 PM 30.0 °F 17.5 °F 26.1 °F 85% 29.65 in 10.0 mi East 19.6 mph - N/A   Overcast
2:41 PM 28.4 °F 15.1 °F 26.6 °F 93% 29.63 in 10.0 mi East 20.7 mph - N/A   Partly Cloudy
2:53 PM 28.9 °F 15.1 °F 27.0 °F 92% 29.62 in 10.0 mi East 23.0 mph - N/A   Scattered Clouds
3:05 PM 28.4 °F 14.1 °F 26.6 °F 93% 29.62 in 6.0 mi East 24.2 mph - N/A   Mostly Cloudy
3:23 PM 28.4 °F 13.8 °F 26.6 °F 93% 29.60 in 1.5 mi ENE 25.3 mph - N/A Snow Blowing Snow
3:53 PM 28.9 °F 15.1 °F 27.0 °F 92% 29.59 in 1.0 mi East 23.0 mph 33.4 mph N/A Snow Blowing Snow
4:53 PM 30.0 °F 16.0 °F 28.0 °F 92% 29.56 in 1.0 mi East 25.3 mph - 0.00 in Snow Blowing Snow
5:53 PM 30.0 °F 17.5 °F 28.9 °F 96% 29.52 in 3.0 mi ENE 19.6 mph - 0.00 in Snow Blowing Snow
6:53 PM 30.9 °F 19.8 °F 28.9 °F 92% 29.50 in 6.0 mi East 16.1 mph - N/A Snow Blowing Snow
7:53 PM 30.0 °F 20.5 °F 28.9 °F 96% 29.47 in 8.0 mi ENE 11.5 mph - N/A   Overcast
8:31 PM 30.2 °F 21.9 °F 28.4 °F 93% 29.45 in 8.0 mi East 9.2 mph - N/A   Overcast
8:53 PM 30.0 °F 21.1 °F 28.9 °F 96% 29.44 in 8.0 mi ENE 10.4 mph - N/A   Overcast
9:53 PM 30.0 °F 21.7 °F 28.0 °F 92% 29.41 in 7.0 mi ENE 9.2 mph - N/A   Overcast
10:53 PM 30.0 °F 22.4 °F 28.0 °F 92% 29.38 in 6.0 mi ENE 8.1 mph - N/A   Overcast
11:53 PM 30.0 °F 24.1 °F 28.9 °F 96% 29.36 in 6.0 mi ENE 5.8 mph - N/A   Overcast